Date String (YYYY-MM-DD hh:mm:ss) UTC,Instrument flags,absolute air pressure of the measurement (hPa),sample flow rate (lpm),inlet stack bypass flow (lpm),air temperature of the measurement (°C),ambient temperature measured by the external sensor (°C),aerosol sample conditioner tube jacket temperature (°C),OPC LED temperature (°C),internal box temperature (°C),relative humidity of the measurement (%),span deviation,mass concentration of particles derived from Lorenz-Mie calculation of OPC scattering (μg/m³),mass concentration of particles derived from Lorenz-Mie calculation of OPC scattering (μg/m³),mass concentration of particles derived from Lorenz-Mie calculation of OPC scattering (μg/m³)
DateTimeUTC,F1_M11,P_M11,Q1_M11,Q2_M11,T1_M11,T2_M11,T3_M11,T4_M11,T5_M11,U1_M11,ZSPAN_M11,X0_M11,X2_M11,X1_M11
2024-01-03 09:00:00,SystemResetWarning,0829.5,5.00,000.00,020.5,019.4,000.0,028.9,021.8,14.2,0004.7,0014.34,0006.90,0006.19
2024-01-03 09:01:00,SystemResetWarning,0829.5,4.99,000.00,020.5,019.4,000.0,028.9,021.8,14.0,0004.6,0014.14,0006.92,0006.19
2024-01-03 09:02:00,SystemResetWarning,0829.5,5.00,000.00,020.5,019.3,000.0,028.9,021.8,14.0,0004.6,0014.40,0006.94,0006.20
2024-01-03 09:03:00,SystemResetWarning,0829.5,5.01,000.00,020.5,019.3,000.0,028.9,021.8,14.0,0004.2,0014.74,0006.96,0006.20
2024-01-03 09:04:00,SystemResetWarning,0829.5,5.01,000.00,020.5,019.3,000.0,028.9,021.8,14.1,0004.5,0014.81,0006.94,0006.21
2024-01-03 09:05:00,SystemResetWarning,0829.5,5.01,000.00,020.5,019.3,000.0,028.9,021.8,14.1,0004.2,0014.72,0006.92,0006.23
2024-01-03 09:06:00,SystemResetWarning,0829.4,5.00,000.00,020.5,019.3,000.0,028.9,021.8,14.1,0004.3,0014.57,0006.94,0006.26
2024-01-03 09:07:00,SystemResetWarning,0829.4,5.00,000.00,020.5,019.3,000.0,028.9,021.8,14.0,0004.7,0014.50,0007.00,0006.29
2024-01-03 09:08:00,SystemResetWarning,0829.3,5.00,000.00,020.5,019.3,000.0,028.9,021.7,14.0,0004.6,0014.94,0007.06,0006.35
2024-01-03 09:09:00,SystemResetWarning,0829.4,5.00,000.00,020.5,019.3,000.0,028.8,021.7,13.9,0004.4,0015.21,0007.23,0006.48
2024-01-03 09:10:00,SystemResetWarning,0829.3,5.00,000.00,020.4,019.3,000.0,028.8,021.7,13.7,0004.5,0015.53,0007.37,0006.60
2024-01-03 09:11:00,SystemResetWarning,0829.4,5.00,000.00,020.4,019.3,000.0,028.8,021.7,13.6,0004.6,0015.76,0007.43,0006.68
2024-01-03 09:12:00,SystemResetWarning,0829.4,5.00,000.00,020.4,019.2,000.0,028.8,021.7,13.6,0003.8,0015.92,0007.50,0006.76
2024-01-03 09:13:00,SystemResetWarning,0829.4,5.01,000.00,020.4,019.2,000.0,028.8,021.7,13.6,0000.0,0016.55,0007.55,0006.79
2024-01-03 09:14:00,SystemResetWarning,0829.4,5.00,000.00,020.4,019.2,000.0,028.8,021.6,13.7,0003.1,0016.83,0007.56,0006.82
2024-01-03 09:15:00,SystemResetWarning,0829.4,5.00,000.00,020.4,019.2,000.0,028.8,021.6,13.8,0004.4,0016.27,0007.60,0006.86
2024-01-03 09:16:00,SystemResetWarning,0829.4,4.99,000.00,020.3,019.2,000.0,028.8,021.6,14.0,0004.6,0016.23,0007.63,0006.88
2024-01-03 09:17:00,SystemResetWarning,0829.3,4.99,000.00,020.3,019.2,000.0,028.8,021.6,14.0,0004.5,0016.66,0007.67,0006.90
2024-01-03 09:18:00,SystemResetWarning,0829.3,4.99,000.00,020.3,019.2,000.0,028.8,021.6,14.0,0004.2,0016.83,0007.69,0006.93
2024-01-03 09:19:00,SystemResetWarning,0829.3,5.00,000.00,020.3,019.2,000.0,028.8,021.6,13.9,0003.9,0016.11,0007.65,0006.92
2024-01-03 09:20:00,SystemResetWarning,0829.4,5.00,000.00,020.3,019.2,000.0,028.7,021.6,13.9,0003.1,0017.17,0007.60,0006.88
2024-01-03 09:21:00,SystemResetWarning,0829.4,5.00,000.00,020.3,019.2,000.0,028.7,021.6,13.9,0003.5,0017.85,0007.52,0006.84
2024-01-03 09:22:00,SystemResetWarning,0829.3,5.00,000.00,020.3,019.2,000.0,028.7,021.6,13.9,0004.0,0017.46,0007.43,0006.77
2024-01-03 09:23:00,SystemResetWarning,0829.4,5.00,000.00,020.3,019.2,000.0,028.7,021.6,13.9,0004.4,0017.17,0007.28,0006.64
2024-01-03 09:24:00,SystemResetWarning,0829.3,5.00,000.00,020.3,019.2,000.0,028.7,021.5,13.7,0004.8,0016.07,0007.19,0006.53
2024-01-03 09:25:00,SystemResetWarning,0829.3,5.00,000.00,020.3,019.1,000.0,028.7,021.5,13.4,0004.9,0015.72,0007.13,0006.48
2024-01-03 09:26:00,SystemResetWarning,0829.4,5.00,000.00,020.2,019.1,000.0,028.7,021.5,13.5,0001.2,0015.41,0007.06,0006.42
2024-01-03 09:27:00,SystemResetWarning,0829.3,5.00,000.00,020.2,019.1,000.0,028.7,021.5,13.6,0000.0,0015.39,0007.02,0006.37
2024-01-03 09:28:00,SystemResetWarning,0829.4,5.00,000.00,020.2,019.1,000.0,028.7,021.5,13.7,0000.0,0014.78,0006.96,0006.33
2024-01-03 09:29:00,SystemResetWarning,0829.3,5.00,000.00,020.2,019.1,000.0,028.6,021.5,13.7,0000.0,0014.85,0006.93,0006.30
2024-01-03 09:30:00,SystemResetWarning,0829.3,4.99,000.00,020.2,019.1,000.0,028.6,021.5,13.8,0001.6,0014.41,0006.89,0006.27
2024-01-03 09:31:00,SystemResetWarning,0829.4,5.00,000.00,020.2,019.1,000.0,028.6,021.5,13.9,0002.7,0013.24,0006.87,0006.26
2024-01-03 09:32:00,SystemResetWarning,0829.4,5.00,000.00,020.2,019.1,000.0,028.6,021.4,13.9,0000.0,0011.67,0006.84,0006.23
2024-01-03 09:33:00,SystemResetWarning,0829.3,5.00,000.00,020.2,019.1,000.0,028.6,021.5,14.0,0000.0,0012.09,0006.82,0006.23
2024-01-03 09:34:00,SystemResetWarning,0829.3,5.00,000.00,020.2,019.0,000.0,028.6,021.4,13.9,0000.0,0012.69,0006.82,0006.27
2024-01-03 09:35:00,SystemResetWarning,0829.3,5.00,000.00,020.2,019.0,000.0,028.6,021.4,14.0,0000.0,0012.84,0006.86,0006.31
2024-01-03 09:36:00,SystemResetWarning,0829.4,5.00,000.00,020.1,019.0,000.0,028.6,021.4,14.0,0000.0,0012.56,0006.86,0006.33
2024-01-03 09:37:00,SystemResetWarning,0829.3,5.00,000.00,020.1,019.0,000.0,028.6,021.4,13.9,0000.0,0012.39,0006.80,0006.27
2024-01-03 09:38:00,SystemResetWarning,0829.3,5.00,000.00,020.1,019.0,000.0,028.6,021.4,13.8,0000.0,0013.14,0006.72,0006.21
2024-01-03 09:39:00,SystemResetWarning,0829.4,5.00,000.00,020.1,019.0,000.0,028.5,021.4,13.8,0000.1,0013.10,0006.64,0006.14
2024-01-03 09:40:00,SystemResetWarning,0829.3,5.00,000.00,020.1,018.9,000.0,028.5,021.4,13.8,0003.3,0012.86,0006.56,0006.05
2024-01-03 09:41:00,SystemResetWarning,0829.4,5.00,000.00,020.1,018.9,000.0,028.5,021.4,13.8,0000.0,0012.86,0006.51,0006.00
2024-01-03 09:42:00,SystemResetWarning,0829.4,5.00,000.00,020.1,018.9,000.0,028.5,021.4,13.8,0003.1,0013.01,0006.52,0005.97
2024-01-03 09:43:00,SystemResetWarning,0829.4,5.00,000.00,020.1,018.9,000.0,028.5,021.4,13.7,0005.2,0013.18,0006.52,0005.96
2024-01-03 09:44:00,SystemResetWarning,0829.4,5.00,000.00,020.1,018.8,000.0,028.5,021.3,13.7,0005.1,0013.53,0006.55,0005.95
2024-01-03 09:45:00,SystemResetWarning,0829.4,5.01,000.00,020.0,018.8,000.0,028.5,021.3,13.6,0005.0,0012.94,0006.56,0005.95
2024-01-03 09:46:00,SystemResetWarning,0829.4,5.00,000.00,020.0,018.8,000.0,028.5,021.3,13.3,0004.7,0013.01,0006.58,0005.94
2024-01-03 09:47:00,SystemResetWarning,0829.3,5.00,000.00,020.0,018.8,000.0,028.5,021.3,13.0,0004.9,0013.31,0006.56,0005.95
2024-01-03 09:48:00,SystemResetWarning,0829.3,5.00,000.00,020.0,018.8,000.0,028.5,021.2,13.3,0004.8,0013.27,0006.65,0006.04
2024-01-03 09:49:00,SystemResetWarning,0829.4,5.00,000.00,020.0,018.8,000.0,028.4,021.2,13.3,0004.8,0012.38,0006.70,0006.10
2024-01-03 09:50:00,SystemResetWarning,0829.3,5.00,000.00,020.0,018.8,000.0,028.4,021.2,13.0,0004.9,0012.16,0006.70,0006.12
2024-01-03 09:51:00,SystemResetWarning,0829.3,5.00,000.00,020.0,018.7,000.0,028.4,021.2,13.1,0005.0,0012.24,0006.74,0006.15
2024-01-03 09:52:00,SystemResetWarning,0829.3,5.01,000.00,019.9,018.7,000.0,028.4,021.2,13.4,0005.1,0012.31,0006.75,0006.16
2024-01-03 09:53:00,SystemResetWarning,0829.4,5.00,000.00,019.9,018.7,000.0,028.4,021.2,13.6,0005.1,0012.16,0006.71,0006.13
2024-01-03 09:54:00,SystemResetWarning,0829.3,5.00,000.00,019.9,018.7,000.0,028.4,021.2,13.8,0005.3,0011.92,0006.64,0006.09
2024-01-03 09:55:00,SystemResetWarning,0829.4,5.00,000.00,019.9,018.7,000.0,028.4,021.2,13.8,0005.4,0011.66,0006.58,0006.03
2024-01-03 09:56:00,SystemResetWarning,0829.4,5.00,000.00,019.9,018.7,000.0,028.4,021.2,13.9,0005.5,0011.38,0006.47,0005.94
2024-01-03 09:57:00,SystemResetWarning,0829.4,5.00,000.00,019.9,018.7,000.0,028.3,021.2,13.7,0005.6,0010.87,0006.34,0005.86
2024-01-03 09:58:00,SystemResetWarning,0829.4,5.00,000.00,019.9,018.7,000.0,028.3,021.1,13.5,0005.4,0010.30,0006.22,0005.76
2024-01-03 09:59:00,SystemResetWarning,0829.4,5.00,000.00,019.9,018.7,000.0,028.3,021.1,13.6,0005.2,0010.14,0006.06,0005.58
